• Join FlightAware (Why Join?)
  • Login
  • US Flag 
07:07AM EDT


 

Airport Tracker/Info


-or-


 

Live Flight TrackerFlight Track Log ✈ SWA720 ✈ 07-Sep-2013 ✈ KBWI - KORF

Flight Track Log - Related Links

Times and Time Zones

All times are in EDT time to prevent confusion due to time zone crossing. See the SWA720 flight status page for this flight to view local times or setup timezone preferences in your user account.

Time Position Orientation Groundspeed Altitude Reporting Facility
EDT Latitude Longitude Course Direction KTS MPH feet Rate Location/Type
08:57AM 39.1500 -76.6500 142° Southeast 173 199 2,200  Level Potomac TRACON
08:58AM 39.1000 -76.6000 142° Southeast 222 255 5,600 3,180 Climbing Potomac TRACON
08:59AM 39.0500 -76.5500 142° Southeast 259 298 8,700 3,060 Climbing Potomac TRACON
09:00AM 38.9667 -76.5000 155° Southeast 298 343 11,800 2,160 Climbing Potomac TRACON
09:01AM 38.8833 -76.5167 189° South 344 396 13,100 600 Climbing Potomac TRACON
09:02AM 38.8000 -76.5667 205° Southwest 361 415 13,100 420 Level Potomac TRACON
09:03AM 38.6878 -76.6422 208° Southwest 387 445 14,000 420 Climbing Washington Center
09:04AM 38.5975 -76.7019 207° Southwest 392 451 14,000  Level Washington Center
09:05AM 38.4931 -76.7217 188° South 377 434 14,000  Level Washington Center
09:06AM 38.3869 -76.7042 173° South 377 434 14,000  Level Washington Center
09:07AM 38.2853 -76.6631 162° South 370 426 14,000  Level Washington Center
09:08AM 38.1856 -76.6142 159° South 375 432 14,000  Level Washington Center
09:09AM 38.0858 -76.5653 159° South 380 437 14,000  Level Washington Center
09:10AM 37.9883 -76.5167 159° South 385 443 14,000  Level Washington Center
09:11AM 37.8906 -76.4681 159° South 390 449 14,000  Level Washington Center
09:12AM 37.8344 -76.4464 163° South 384 442 14,000  Level Washington Center
09:12AM 37.8094 -76.4275 149° Southeast 390 449 14,000 -900 Level Washington Center
09:13AM 37.7347 -76.3978 163° South 381 438 13,100 -1,680 Descending Washington Center
09:13AM 37.6931 -76.3739 156° South 385 443 12,300 -2,160 Descending Washington Center
09:14AM 37.6514 -76.3550 160° South 351 404 11,200 -1,920 Descending Washington Center
09:14AM 37.6036 -76.3364 163° South 363 418 10,500 -1,020 Descending Washington Center
09:15AM 37.5619 -76.3358 179° South 325 374 10,200 -540 Descending Washington Center
09:15AM 37.5119 -76.3169 163° South 342 394 10,000 -300 Descending Washington Center
09:16AM 37.4722 -76.3167 180° South 328 377 9,900  Descending Washington Center
09:16AM 37.4244 -76.3031 167° South 330 380 10,000 120 Climbing Washington Center
09:16AM 37.4056 -76.3056 186° South 308 354 10,000 -1,020 Level Washington Center
09:17AM 37.3411 -76.2867 167° South 319 367 9,000 -1,560 Descending Washington Center
09:18AM 37.3161 -76.2839 175° South 303 349 8,400 -1,500 Descending Washington Center
09:18AM 37.2597 -76.2731 171° South 309 356 7,500 -1,500 Descending Washington Center
09:19AM 37.2347 -76.2728 179° South 293 337 6,900 -1,620 Descending Washington Center
09:19AM 37.1786 -76.2567 167° South 304 350 5,900 -1,560 Descending Washington Center
09:20AM 37.1453 -76.2564 180° South 288 331 5,200 -900 Descending Washington Center
09:20AM 37.1097 -76.2456 166° South 294 338 5,000 -240 Descending Washington Center
09:21AM 37.0744 -76.2400 173° South 244 281 5,000  Level Washington Center
09:22AM 37.0117 -76.2267 170° South 224 258 5,000  Level Washington Center
09:23AM 36.9636 -76.2444 196° South 221 254 5,000  Level Washington Center
09:24AM 36.9156 -76.2958 221° Southwest 216 249 5,000  Level Washington Center
09:25AM 36.8733 -76.3553 228° Southwest 217 250 5,000 -300 Level Washington Center
09:26AM 36.8272 -76.3989 217° Southwest 218 251 4,500 -780 Descending Washington Center
09:27AM 36.7667 -76.3956 177° South 196 226 3,400 -900 Descending Washington Center
09:28AM 36.7628 -76.3411 95° East 188 216 2,700 -720 Descending Washington Center
09:29AM 36.7986 -76.2947 46° Northeast 167 192 2,000 -660 Descending Washington Center
09:30AM 36.8342 -76.2642 35° Northeast 150 173 1,400 -720 Descending Washington Center
09:31AM 36.8617 -76.2383 37° Northeast 134 154 700 -780 Descending Washington Center